EHI
0 0 0 0 0 0 0 0 0 0 0 0 0 2 3 4 5 7 8 9 11 15 15 14 14 17 18 21 24 26 27 32 33 33 34 31 21 10 4 2 1 0 0 0
0 0 0 0 0 0 0 0 0 0 0 0 0 2 5 7 9 10 11 12 14 15 15 13 12 13 16 21 25 26 29 38 45 46 41 32 20 10 5 3 2 1 0 0
0 0 0 0 0 0 0 0 0 0 0 0 0 2 5 11 14 13 13 15 15 15 15 14 13 14 17 20 24 27 32 42 52 54 45 31 19 10 6 4 4 3 1 0
0 0 0 0 0 0 0 0 0 0 0 0 0 0 3 8 11 12 14 15 15 13 13 14 15 17 17 18 21 25 31 38 43 44 39 29 20 11 5 4 3 2 0 0
0 0 0 0 0 0 0 0 0 0 0 0 0 0 1 3 7 9 10 11 10 9 8 9 11 13 13 13 15 19 23 27 28 28 26 23 16 8 3 2 1 0 0 0
0 0 0 0 0 0 0 0 0 0 0 0 0 0 1 3 5 7 6 5 4 3 3 3 4 6 8 8 9 11 13 15 15 14 13 11 7 3 0 0 0 0 0 0
0 0 0 0 0 0 0 0 0 0 0 0 0 1 3 4 4 5 4 2 1 0 1 1 2 3 4 5 6 6 7 7 6 5 5 3 1 0 0 0 0 0 0 0
0 0 0 0 0 0 0 0 0 0 0 0 0 1 3 2 2 3 3 2 1 0 1 2 2 2 3 3 3 3 3 2 1 1 1 0 0 0 0 0 0 0 0 0
0 0 0 0 0 0 0 0 0 0 0 0 0 1 1 1 1 1 2 2 1 0 1 1 1 1 1 1 1 1 1 0 0 0 0 0 0 0 0 0 0 0 0 0
0 0 0 0 0 0 0 0 0 0 0 0 0 0 1 1 1 1 1 1 0 0 0 0 0 0 0 0 0 0 0 0 0 0 0 0 0 0 0 0 0 0 0 0
0 0 0 0 0 0 0 0 0 0 0 0 0 0 0 1 1 0 0 0 0 0 0 0 0 0 0 0 0 0 0 0 0 0 0 0 0 0 0 0 0 0 0 0
0 0 0 0 0 0 0 0 0 0 0 0 0 0 0 0 0 0 0 0 0 0 0 0 0 0 0 0 0 0 0 0 0 0 0 0 0 0 0 0 0 0 0 0
0 0 0 0 0 0 0 0 0 0 0 0 0 0 0 0 0 0 0 0 0 0 0 0 0 0 0 0 0 0 0 0 0 0 0 0 0 0 0 0 0 0 0 0
0 0 0 0 0 0 0 0 0 0 0 0 0 0 0 0 0 0 0 0 0 0 0 0 0 0 0 0 0 0 0 0 0 0 0 0 0 0 0 0 0 0 0 0
0 0 0 0 0 0 0 0 0 0 0 0 0 0 0 0 0 0 0 0 0 0 0 0 0 0 0 0 0 0 0 0 0 0 0 0 0 0 0 0 0 0 0 0
0 0 0 0 0 0 0 0 0 0 0 0 0 0 0 0 0 0 0 0 0 0 0 0 0 0 0 0 0 0 0 0 0 0 0 0 0 0 0 0 0 0 0 0
0 0 0 0 0 0 0 0 0 0 0 0 0 0 0 0 0 0 0 0 0 0 0 0 0 0 0 0 0 0 0 0 0 0 0 0 0 0 0 0 0 0 0 0
0 0 0 0 0 0 0 0 0 0 0 0 0 0 0 0 0 0 0 0 0 0 0 0 0 0 0 0 0 0 0 0 0 0 0 0 0 0 0 0 0 0 0 0
0 0 0 0 0 0 0 0 0 0 0 0 0 0 0 0 0 0 0 0 0 0 0 0 0 0 0 0 0 0 0 0 0 0 0 0 0 0 0 0 0 0 0 0
0 0 0 0 0 0 0 0 0 0 0 0 0 0 0 0 0 0 0 0 0 0 0 0 0 0 0 0 0 0 0 0 0 0 0 0 0 0 0 0 0 0 0 0
0 0 0 0 0 0 0 0 0 0 0 0 0 0 0 0 0 0 0 0 0 0 0 0 0 0 0 0 0 0 0 0 0 0 0 0 0 0 0 0 0 0 0 0
0 0 0 0 0 0 0 0 0 0 0 0 0 0 0 0 0 0 0 0 0 0 0 0 0 0 0 0 0 0 0 0 0 0 0 0 0 0 0 0 0 0 0 0
0 0 0 0 0 0 0 0 0 0 0 0 0 0 0 0 0 0 0 0 0 0 0 0 0 0 0 0 0 0 0 0 0 0 0 0 0 0 0 0 0 0 0 0
0 0 0 0 0 0 0 0 0 0 0 0 0 0 0 0 0 0 0 0 0 0 0 0 0 0 0 0 0 0 0 0 0 0 0 0 0 0 0 0 0 0 0 0
0 0 0 0 0 0 0 0 0 0 0 0 0 0 0 0 0 0 0 0 0 0 0 0 0 0 0 0 0 0 0 0 0 0 0 0 0 0 0 0 0 0 0 0
0 0 0 0 0 0 0 0 0 0 0 0 0 0 0 0 0 0 0 0 0 0 0 0 0 0 0 0 0 0 0 0 0 0 0 0 0 0 0 0 0 0 0 0
Wind_Speed
4 4 4 7 8 6 2 2 4 6 4 1 1 2 6 4 1 3 4 5 6 6 4 3 3 5 5 5 7 8 9 8 7 6 6 5 3 3 3 3 3 4 4 4
4 2 8 5 4 4 3 3 5 6 2 1 1 4 6 7 4 2 4 4 3 2 2 3 3 3 2 2 2 4 6 7 7 6 4 4 4 4 3 3 4 4 4 3
5 6 3 4 3 4 3 4 4 5 6 4 3 5 7 8 9 10 9 7 6 5 4 4 4 3 4 3 2 2 4 5 6 7 6 6 4 4 3 4 3 4 5 5
4 5 3 3 4 5 5 6 6 3 2 4 2 2 4 5 9 11 11 11 10 9 8 7 6 6 6 4 3 3 3 4 5 6 7 8 6 5 4 4 4 5 6 6
5 3 4 6 8 8 8 4 3 2 3 1 2 5 1 2 6 9 10 11 11 10 10 10 9 9 8 7 5 5 5 5 5 5 6 7 6 5 6 7 7 6 6 7
6 4 5 7 5 7 4 2 3 4 4 0 2 5 1 2 4 6 9 10 11 11 11 11 11 11 10 10 9 8 8 7 6 6 6 7 9 9 9 8 7 6 5 6
5 4 4 4 2 1 4 5 3 3 3 2 1 6 3 5 7 8 9 10 11 11 11 12 13 12 12 12 11 10 10 10 9 10 10 9 9 9 9 8 7 7 6 5
2 6 3 3 6 5 5 8 7 5 4 0 3 5 4 7 9 10 10 10 11 12 12 13 12 12 11 12 12 12 12 11 11 11 11 10 10 8 8 9 8 8 6 6
3 5 4 2 2 7 5 4 5 6 3 4 3 5 5 7 9 9 9 10 11 11 12 12 12 12 13 13 14 13 13 13 13 12 13 13 12 11 11 11 10 8 7 7
4 3 5 4 6 5 4 6 5 5 5 3 3 3 2 7 8 7 7 8 9 9 11 12 12 12 12 13 13 13 14 14 13 12 12 12 12 12 11 11 11 10 10 9
2 2 5 6 6 3 4 5 5 5 4 6 4 1 2 7 10 9 7 7 7 8 9 10 10 11 12 12 12 12 13 14 13 13 13 13 12 12 12 11 11 10 10 9
2 5 3 2 2 2 4 3 4 5 3 4 5 3 3 8 10 10 9 8 8 9 9 9 10 10 11 12 12 12 12 13 12 11 12 13 12 11 12 11 10 10 10 9
3 5 4 4 6 7 6 4 3 5 6 4 6 5 5 9 10 9 9 8 8 8 9 9 10 10 11 11 11 12 11 11 11 11 12 12 12 11 11 10 9 9 9 9
5 5 4 4 2 1 4 6 3 4 5 4 4 9 8 9 9 9 9 8 8 8 9 10 10 9 10 10 10 11 10 10 10 11 11 11 10 10 9 8 8 8 8 8
6 6 6 6 6 6 7 8 8 6 3 5 7 9 10 9 9 9 9 9 9 9 10 10 9 9 9 10 10 10 9 9 9 10 10 9 8 8 8 7 7 7 6 6
5 5 4 5 6 9 11 11 8 7 6 7 9 6 6 9 8 8 8 9 10 10 10 10 10 9 9 9 8 8 8 7 8 8 8 7 7 7 7 6 6 6 6 5
4 4 4 1 2 4 8 7 5 5 5 3 3 5 9 9 8 7 8 9 9 10 10 10 9 8 7 7 7 7 6 6 7 7 6 6 6 6 6 6 5 5 4 3
5 5 4 3 4 4 0 1 4 6 7 6 8 8 9 10 9 8 7 9 10 10 10 9 8 8 7 6 6 6 6 6 6 6 5 5 5 5 4 4 4 3 2 2
4 6 5 4 4 1 1 1 1 3 4 4 9 10 11 11 10 8 8 9 10 9 9 8 7 7 6 6 5 6 6 5 5 5 4 4 4 4 3 3 2 2 2 2
7 6 6 4 4 2 1 2 0 4 2 2 6 9 9 4 5 4 7 10 10 9 8 8 7 7 6 5 5 7 6 5 4 3 3 3 3 3 2 2 2 2 1 2
6 6 5 4 2 1 2 3 1 1 3 4 6 7 5 4 5 8 9 9 9 9 8 8 7 6 5 4 6 6 5 4 3 3 3 3 2 2 1 2 1 2 2 3
3 3 2 3 2 2 4 1 3 3 3 5 6 6 8 10 11 10 10 9 9 9 8 7 7 6 4 4 5 5 3 2 2 3 3 2 1 1 2 2 2 2 2 3
2 4 5 4 4 3 2 1 2 4 6 5 6 8 12 12 11 10 9 8 8 8 6 5 6 5 4 3 4 4 2 2 3 3 2 1 2 2 2 1 1 2 2 2
1 2 4 3 1 2 3 3 4 4 5 7 9 11 12 12 11 10 9 8 7 6 5 5 5 5 3 2 2 2 2 2 3 2 1 1 1 1 2 1 1 1 1 1
4 4 4 2 2 3 2 3 5 7 10 11 10 9 10 12 11 10 8 7 6 5 4 4 4 4 2 2 1 1 1 3 2 1 0 1 1 1 1 1 1 0 1 1
3 6 6 6 7 6 5 4 6 9 9 10 11 9 8 9 9 9 7 5 5 5 4 4 4 3 2 1 0 0 1 2 2 0 1 1 1 0 1 1 1 3 1 1
Wind_Direction
114 102 188 208 198 206 231 282 294 276 278 299 288 329 335 343 187 185 171 171 180 188 179 138 156 172 177 175 181 185 184 179 169 169 170 163 159 133 124 119 118 128 139 149
63 232 226 210 193 205 228 278 292 294 313 247 33 33 17 28 45 95 139 148 166 144 93 85 83 90 110 147 173 179 179 176 174 173 161 135 124 115 103 89 81 86 97 103
184 233 206 170 194 205 230 221 246 273 333 2 83 31 33 38 49 54 53 53 54 60 62 53 53 58 74 75 91 160 168 166 159 148 129 117 108 97 98 97 86 67 82 83
221 243 200 200 225 191 253 232 223 251 353 310 62 80 21 50 54 53 50 48 46 45 47 48 41 37 43 50 61 78 109 131 140 144 151 150 151 144 125 105 90 72 66 75
236 218 195 214 225 184 220 228 214 229 185 299 24 115 342 67 65 57 52 50 46 46 46 46 42 42 39 35 49 73 89 92 100 121 141 140 128 116 110 105 98 83 66 64
241 230 203 215 228 197 203 69 53 51 87 34 288 124 72 42 80 75 59 51 46 45 46 45 43 43 39 35 41 52 67 68 76 89 96 107 115 118 117 109 103 89 76 65
302 281 235 196 246 221 135 104 40 21 42 240 11 93 84 69 79 85 75 61 53 49 48 45 43 42 39 37 40 47 57 59 62 71 73 84 96 103 106 107 99 94 83 73
293 302 266 194 188 185 171 146 158 176 186 228 37 87 89 86 85 80 74 66 58 54 54 52 47 45 45 43 44 48 55 57 59 67 71 72 78 82 86 89 92 87 83 77
209 277 297 265 203 147 140 173 165 129 125 92 88 106 114 105 88 78 70 63 57 53 54 54 51 49 49 48 47 50 58 60 59 64 72 72 72 78 83 82 81 80 79 79
188 264 324 338 44 29 118 135 97 111 131 120 118 128 144 145 123 101 83 73 64 59 57 55 53 54 53 53 52 54 59 64 64 65 71 77 75 76 79 81 80 79 77 77
153 139 344 27 32 352 46 63 87 96 126 137 142 147 337 154 138 126 106 89 79 69 63 59 57 57 60 60 58 59 62 65 65 66 69 73 73 74 74 75 77 79 76 74
111 108 54 8 319 4 81 84 117 129 121 108 121 105 41 119 122 121 114 100 89 83 76 70 65 62 60 60 59 59 60 65 66 68 72 72 71 73 76 75 74 78 78 76
88 92 79 7 352 8 40 26 65 107 104 117 129 132 107 110 111 115 116 110 100 94 87 79 71 67 65 64 64 64 63 65 66 69 71 72 70 70 72 74 75 77 80 79
98 68 118 150 207 22 33 13 26 93 114 134 147 142 144 134 130 125 120 114 106 97 91 86 80 75 74 73 73 71 67 66 70 70 70 69 70 71 72 74 76 78 82 83
76 66 63 69 67 78 63 36 35 57 108 144 148 141 150 146 138 131 124 118 110 103 96 91 89 84 80 77 74 74 73 69 72 74 74 73 73 76 76 74 74 77 80 84
62 99 76 62 63 71 56 30 31 39 44 89 106 96 113 116 115 120 122 120 115 109 104 99 94 89 85 84 83 80 78 75 78 80 80 79 78 75 73 72 72 70 68 66
68 104 93 86 314 43 35 3 25 47 34 66 110 115 123 114 111 119 125 122 119 116 113 108 100 92 88 86 89 88 86 85 82 82 82 80 77 75 72 76 73 69 60 55
109 92 97 86 54 62 279 356 74 78 51 64 92 104 104 101 87 77 96 113 115 114 112 108 104 98 91 89 90 91 89 88 87 86 84 83 85 84 82 81 74 62 48 36
97 116 98 92 87 99 243 43 52 90 64 75 113 111 108 110 90 67 75 98 107 109 107 104 103 103 99 97 101 98 90 88 89 91 92 94 98 95 86 76 57 37 31 16
48 70 94 98 111 184 247 336 96 105 98 127 129 132 133 120 106 105 101 103 103 103 103 103 100 96 92 91 100 99 96 94 94 98 100 98 99 100 94 75 52 32 27 13
24 35 63 88 100 278 305 313 112 146 215 148 139 137 126 92 114 121 112 102 102 102 102 101 97 93 93 101 103 100 100 101 100 99 98 90 88 97 98 70 49 40 45 44
118 99 101 107 103 254 331 44 151 183 121 115 121 115 109 111 112 113 111 108 106 104 102 102 100 94 89 99 106 105 106 111 102 97 88 69 52 37 85 80 55 49 58 50
116 169 160 161 194 252 332 59 91 124 115 113 118 121 125 123 121 117 112 110 107 106 104 104 108 100 85 94 114 119 136 128 108 91 68 35 32 42 60 85 79 61 52 48
116 122 103 96 62 45 53 65 70 86 104 113 122 129 130 126 125 120 118 115 110 109 109 110 107 103 92 89 109 139 150 130 113 95 60 20 28 28 38 52 87 112 96 51
166 122 101 104 145 101 61 91 104 96 102 106 108 116 125 126 127 126 124 121 118 114 108 110 113 113 106 89 79 101 133 130 123 113 25 3 20 16 39 51 43 70 214 209
187 162 160 198 194 164 169 146 128 121 122 125 119 111 115 124 125 123 120 121 121 119 115 115 117 123 131 137 162 261 160 152 154 219 290 308 332 3 77 83 37 30 28 348